TimeCDT,TemperatureF,Dew PointF,Humidity,Sea Level PressureIn,VisibilityMPH,Wind Direction,Wind SpeedMPH,Gust SpeedMPH,PrecipitationIn,Events,Conditions,WindDirDegrees,DateUTC
12:15 AM,44.6,41.0,87,29.97,10.0,South,6.9,-,N/A,,Clear,190,2011-10-31 05:15:00
12:35 AM,44.6,41.0,87,29.97,10.0,SSW,5.8,-,N/A,,Clear,200,2011-10-31 05:35:00
12:55 AM,42.8,41.0,93,29.98,10.0,SSW,4.6,-,N/A,,Clear,210,2011-10-31 05:55:00
1:15 AM,42.8,41.0,93,29.98,10.0,SSW,6.9,-,N/A,,Clear,210,2011-10-31 06:15:00
1:35 AM,41.0,39.2,93,29.99,7.0,SSW,4.6,-,N/A,,Clear,210,2011-10-31 06:35:00
1:55 AM,41.0,39.2,93,29.99,5.0,WSW,3.5,-,N/A,,Clear,240,2011-10-31 06:55:00
2:15 AM,42.8,39.2,87,29.99,2.0,West,3.5,-,N/A,,Clear,260,2011-10-31 07:15:00
2:35 AM,41.0,39.2,93,29.99,0.2,WSW,4.6,-,N/A,Fog,Fog,250,2011-10-31 07:35:00
2:55 AM,41.0,39.2,93,29.99,0.5,WSW,4.6,-,N/A,Fog,Fog,250,2011-10-31 07:55:00
3:15 AM,41.0,39.2,93,29.99,0.5,West,4.6,-,N/A,Fog,Fog,260,2011-10-31 08:15:00
3:35 AM,41.0,39.2,93,29.98,1.5,Calm,Calm,-,N/A,,Overcast,0,2011-10-31 08:35:00
3:55 AM,41.0,39.2,93,29.98,4.0,West,3.5,-,N/A,,Overcast,270,2011-10-31 08:55:00
4:15 AM,41.0,39.2,93,29.98,7.0,Calm,Calm,-,N/A,,Overcast,0,2011-10-31 09:15:00
4:35 AM,41.0,39.2,93,29.98,7.0,NW,4.6,-,N/A,,Overcast,310,2011-10-31 09:35:00
4:55 AM,41.0,39.2,93,29.99,10.0,West,5.8,-,N/A,,Overcast,270,2011-10-31 09:55:00
5:15 AM,41.0,39.2,93,30.00,10.0,WNW,4.6,-,N/A,,Overcast,290,2011-10-31 10:15:00
5:35 AM,41.0,37.4,87,30.00,7.0,West,3.5,-,N/A,,Overcast,280,2011-10-31 10:35:00
5:55 AM,41.0,37.4,87,30.00,10.0,West,4.6,-,N/A,,Overcast,280,2011-10-31 10:55:00
6:15 AM,41.0,37.4,87,30.01,10.0,WNW,3.5,-,N/A,,Overcast,290,2011-10-31 11:15:00
6:55 AM,41.0,37.4,87,30.01,10.0,WNW,4.6,-,N/A,,Overcast,290,2011-10-31 11:55:00
7:15 AM,41.0,37.4,87,30.01,10.0,WNW,3.5,-,N/A,,Overcast,290,2011-10-31 12:15:00
7:35 AM,41.0,37.4,87,30.02,10.0,WNW,3.5,-,N/A,,Overcast,290,2011-10-31 12:35:00
7:55 AM,41.0,37.4,87,30.03,10.0,WNW,3.5,-,N/A,,Overcast,290,2011-10-31 12:55:00
8:15 AM,39.2,35.6,87,30.04,10.0,WNW,4.6,-,N/A,,Mostly Cloudy,290,2011-10-31 13:15:00
8:35 AM,41.0,37.4,87,30.04,10.0,WNW,5.8,-,N/A,,Scattered Clouds,300,2011-10-31 13:35:00
8:55 AM,42.8,37.4,81,30.04,10.0,WNW,4.6,-,N/A,,Clear,300,2011-10-31 13:55:00
10:55 AM,50.0,41.0,71,30.07,10.0,West,8.1,-,N/A,,Clear,280,2011-10-31 15:55:00
11:15 AM,50.0,41.0,71,30.08,10.0,West,9.2,-,N/A,,Scattered Clouds,280,2011-10-31 16:15:00
11:35 AM,50.0,41.0,71,30.08,10.0,West,9.2,-,N/A,,Scattered Clouds,280,2011-10-31 16:35:00
11:55 AM,51.8,41.0,67,30.08,10.0,West,10.4,16.1,N/A,,Mostly Cloudy,270,2011-10-31 16:55:00
12:15 PM,50.0,39.2,66,30.08,10.0,West,10.4,-,N/A,,Mostly Cloudy,260,2011-10-31 17:15:00
12:35 PM,51.8,39.2,62,30.07,10.0,West,8.1,-,N/A,,Mostly Cloudy,280,2011-10-31 17:35:00
12:55 PM,53.6,41.0,62,30.07,10.0,West,9.2,-,N/A,,Mostly Cloudy,260,2011-10-31 17:55:00
1:15 PM,51.8,39.2,62,30.07,10.0,NW,10.4,-,N/A,,Mostly Cloudy,310,2011-10-31 18:15:00
1:35 PM,51.8,39.2,62,30.06,10.0,West,9.2,-,N/A,,Overcast,280,2011-10-31 18:35:00
1:55 PM,51.8,39.2,62,30.06,10.0,WNW,6.9,-,N/A,,Overcast,290,2011-10-31 18:55:00
2:15 PM,51.8,37.4,58,30.05,10.0,West,5.8,-,N/A,,Overcast,280,2011-10-31 19:15:00
2:35 PM,51.8,39.2,62,30.06,10.0,West,5.8,-,N/A,,Overcast,260,2011-10-31 19:35:00
2:55 PM,51.8,37.4,58,30.06,10.0,West,6.9,-,N/A,,Overcast,280,2011-10-31 19:55:00
3:15 PM,51.8,37.4,58,30.07,10.0,WNW,10.4,16.1,N/A,,Overcast,290,2011-10-31 20:15:00
3:35 PM,51.8,37.4,58,30.07,10.0,WNW,6.9,-,N/A,,Overcast,290,2011-10-31 20:35:00
3:55 PM,51.8,37.4,58,30.07,10.0,WNW,4.6,-,N/A,,Scattered Clouds,290,2011-10-31 20:55:00
4:15 PM,51.8,37.4,58,30.07,10.0,West,5.8,-,N/A,,Scattered Clouds,270,2011-10-31 21:15:00
4:35 PM,51.8,39.2,62,30.08,10.0,NW,4.6,-,N/A,,Overcast,310,2011-10-31 21:35:00
4:55 PM,51.8,37.4,58,30.08,10.0,Calm,Calm,-,N/A,,Scattered Clouds,0,2011-10-31 21:55:00
5:15 PM,51.8,37.4,58,30.08,10.0,Calm,Calm,-,N/A,,Scattered Clouds,0,2011-10-31 22:15:00
5:35 PM,50.0,37.4,62,30.09,10.0,Calm,Calm,-,N/A,,Scattered Clouds,0,2011-10-31 22:35:00
5:55 PM,50.0,37.4,62,30.09,10.0,Calm,Calm,-,N/A,,Mostly Cloudy,0,2011-10-31 22:55:00
6:15 PM,48.2,37.4,66,30.10,10.0,Calm,Calm,-,N/A,,Overcast,0,2011-10-31 23:15:00
6:35 PM,48.2,37.4,66,30.10,10.0,East,3.5,-,N/A,,Overcast,90,2011-10-31 23:35:00
6:55 PM,48.2,37.4,66,30.11,10.0,ESE,4.6,-,N/A,,Scattered Clouds,110,2011-10-31 23:55:00
7:15 PM,48.2,37.4,66,30.11,10.0,ESE,5.8,-,N/A,,Clear,110,2011-11-01 00:15:00
7:35 PM,44.6,35.6,71,30.11,10.0,East,3.5,-,N/A,,Clear,100,2011-11-01 00:35:00
7:55 PM,46.4,37.4,71,30.11,10.0,ESE,4.6,-,N/A,,Clear,110,2011-11-01 00:55:00
8:15 PM,44.6,37.4,76,30.11,10.0,ESE,5.8,-,N/A,,Clear,120,2011-11-01 01:15:00
8:35 PM,46.4,37.4,71,30.12,10.0,ESE,6.9,-,N/A,,Clear,120,2011-11-01 01:35:00
8:55 PM,46.4,37.4,71,30.12,10.0,ESE,6.9,-,N/A,,Clear,120,2011-11-01 01:55:00
9:15 PM,46.4,37.4,71,30.12,10.0,ESE,5.8,-,N/A,,Clear,120,2011-11-01 02:15:00
9:35 PM,44.6,37.4,76,30.13,10.0,SE,4.6,-,N/A,,Clear,130,2011-11-01 02:35:00
9:55 PM,44.6,37.4,76,30.13,10.0,SE,5.8,-,N/A,,Clear,140,2011-11-01 02:55:00
10:15 PM,44.6,37.4,76,30.13,10.0,SSE,6.9,-,N/A,,Clear,150,2011-11-01 03:15:00
10:35 PM,44.6,37.4,76,30.13,10.0,SSE,4.6,-,N/A,,Clear,150,2011-11-01 03:35:00
10:55 PM,42.8,35.6,76,30.13,10.0,South,5.8,-,N/A,,Clear,170,2011-11-01 03:55:00
11:15 PM,42.8,35.6,76,30.13,10.0,SSE,5.8,-,N/A,,Clear,160,2011-11-01 04:15:00
11:35 PM,42.8,35.6,76,30.13,10.0,SSE,6.9,-,N/A,,Clear,160,2011-11-01 04:35:00
11:55 PM,41.0,33.8,76,30.12,10.0,SSE,4.6,-,N/A,,Clear,150,2011-11-01 04:55:00